Home > Weather > Atlanta > Past weeks

Flag for USA Past Weather in Atlanta, Georgia, USA — Yesterday and Last 2 Weeks

Now
73 °F

Passing clouds.


Feels Like: 71 °F
Forecast: 73 / 90 °F
Wind: No wind

Location: Fulton County Airport-Brown Field

Current Time: Aug 27, 2016 at 7:58:46 AM

Latest Report: Aug 27, 2016 at 6:53 AM


Visibility: 10 mi

Pressure: 30.05 "Hg

Humidity: 90%

Dew Point: 70 °F

Location of AtlantaLocation

Past Weather in Atlanta — Graph

°F

Atlanta Temperature Yesterday

Maximum temperature yesterday: 93 °F (at 4:53 PM)
Minimum temperature yesterday: 72 °F (at 5:53 AM)
Average temperature yesterday: 82 °F

High & Low Weather Summary for the Past Weeks

 TemperatureHumidityPressure
High95 °F (Aug 18, 2:53 PM)97% (Aug 24, 9:53 PM)30.26 "Hg (Aug 24, 9:53 PM)
Low68 °F (Aug 23, 5:53 AM)38% (Aug 18, 3:53 PM)29.86 "Hg (Aug 20, 4:53 PM)
Average80 °F72%30.08 "Hg
* Reported Aug 12 5:53 AM — Aug 27 5:53 AM, Atlanta, Weather by CustomWeather, © 2016

Note: Actual official high and low records may vary slightly from our data, if they occured in-between our weather recording intervals... More about our weather records

Advertising

Atlanta Weather History for the Previous 24 Hours

Scroll right to see more
 ConditionsComfort  
Time TempWeatherWind HumidityBarometerVisibility
5:53 AM
Sat, Aug 27
72 °FClear.No wind93%30.03 "Hg10 mi
4:53 AM74 °FClear.No wind88%30.03 "Hg10 mi
3:53 AM74 °FClear.No wind88%30.04 "Hg10 mi
2:53 AM74 °FClear.No wind88%30.04 "Hg10 mi
1:53 AM76 °FClear.No wind82%30.06 "Hg10 mi
12:53 AM78 °FClear.5 mph76%30.06 "Hg10 mi
11:53 PM
Fri, Aug 26
77 °FClear.5 mph85%30.07 "Hg10 mi
10:53 PM80 °FPartly cloudy.5 mph76%30.06 "Hg10 mi
9:53 PM81 °FPassing clouds.No wind74%30.04 "Hg10 mi
8:53 PM81 °FSunny.No wind77%30.03 "Hg10 mi
7:53 PM89 °FPartly sunny.3 mph52%30.01 "Hg10 mi
6:53 PM92 °FSunny.7 mph43%29.99 "Hg10 mi
5:53 PM93 °FSunny.8 mph41%29.98 "Hg10 mi
4:53 PM93 °FPassing clouds.6 mph42%29.99 "Hg10 mi
3:53 PM91 °FScattered clouds.5 mph50%30.01 "Hg10 mi
2:53 PM84 °FLight rain. Mostly cloudy.3 mph72%30.04 "Hg7 mi
1:53 PM90 °FPartly sunny.No wind50%30.06 "Hg10 mi
12:53 PM90 °FPartly sunny.5 mph48%30.08 "Hg10 mi
11:53 AM89 °FSunny.6 mph53%30.10 "Hg10 mi
10:53 AM87 °FSunny.No wind57%30.10 "Hg10 mi
9:53 AM83 °FSunny.No wind68%30.09 "Hg10 mi
8:53 AM78 °FSunny.No wind79%30.09 "Hg10 mi
7:53 AM73 °FClear.No wind90%30.08 "Hg10 mi
Weather by CustomWeather, © 2016

See weather overviewHow to use our weather pages